Location: Poughquag
(41.6090°N, 73.6820°W)
Time: 14:06:04
(UTC-04:00)

DIWATA 2B (PO-101) - Visible Passes

Search period start: 29 May 2024 00:00
Search period end: 08 June 2024 00:00
Orbit: 574 x 589 km, 98.1° (Epoch: 29 May)

Date Brightness Start Highest point End Pass type
(mag) Time Alt. Az. Time Alt. Az. Time Alt. Az.
29 May ? 04:11:52 10° SSE 04:15:55 66° ENE 04:19:59 10° N visible
30 May ? 04:17:15 10° SSE 04:21:20 76° ENE 04:25:26 10° N visible
31 May ? 04:22:39 10° SSE 04:26:46 87° ENE 04:30:52 10° NNW visible
01 Jun ? 04:28:05 10° S 04:32:10 81° WSW 04:36:17 10° NNW visible
02 Jun ? 03:02:00 10° ENE 03:02:52 11° ENE 03:03:44 10° NE visible
02 Jun ? 04:33:31 10° S 04:37:35 70° WSW 04:41:41 10° NNW visible
03 Jun ? 03:06:37 10° E 03:08:13 12° ENE 03:09:49 10° NE visible
03 Jun ? 04:38:59 10° S 04:43:01 60° W 04:47:05 10° NNW visible
04 Jun ? 03:11:31 10° E 03:13:34 14° ENE 03:15:38 10° NNE visible
04 Jun ? 04:44:27 10° S 04:48:26 52° W 04:52:27 10° NNW visible
05 Jun ? 03:16:30 10° E 03:18:55 15° ENE 03:21:20 10° NNE visible
06 Jun ? 03:21:33 10° ESE 03:24:16 17° ENE 03:26:59 10° NNE visible
07 Jun ? 03:26:40 10° ESE 03:29:37 20° ENE 03:32:34 10° NNE visible
